owner,sensor,date,latitude,longitude,vertical_datum,wind_speed,wind_to_direction,wind_speed_of_gust,qcFlag 
TABS,ioos:station:wmo:42043:1,2003-03-01T00:09:00Z,28.9818,-94.9186,4.0,6.881751231,46.23608902,9.68,'11111222,11111222,11111222' 
TABS,ioos:station:wmo:42043:1,2003-03-01T00:39:00Z,28.9818,-94.9186,4.0,6.630754105,47.26098426,10.41,'11111222,11111222,11111222' 
TABS,ioos:station:wmo:42043:1,2003-03-01T01:09:00Z,28.9818,-94.9186,4.0,6.356099433,49.5939269,9.48,'11111222,11111222,11111222' 
TABS,ioos:station:wmo:42043:1,2003-03-01T01:39:00Z,28.9818,-94.9186,4.0,5.858438358,55.36017554,8.35,'11111222,11111222,11111222' 
TABS,ioos:station:wmo:42043:1,2003-03-01T02:09:00Z,28.9818,-94.9186,4.0,4.947251762,64.62591908,7.5,'11111222,11111222,11111222' 
TABS,ioos:station:wmo:42043:1,2003-03-01T02:39:00Z,28.9818,-94.9186,4.0,5.585839239,68.57917005,7.98,'11111222,11111222,11111222' 
TABS,ioos:station:wmo:42043:1,2003-03-01T03:09:00Z,28.9818,-94.9186,4.0,4.904936289,77.04001446,7.7,'11111222,11111222,11111222' 
TABS,ioos:station:wmo:42043:1,2003-03-01T03:39:00Z,28.9818,-94.9186,4.0,4.925900933,76.01978954,7.78,'11111222,11111222,11111222' 
TABS,ioos:station:wmo:42043:1,2003-03-01T04:09:00Z,28.9818,-94.9186,4.0,3.756181572,77.70243066,6.24,'11111222,11111222,11111222' 
TABS,ioos:station:wmo:42043:1,2003-03-01T04:39:00Z,28.9818,-94.9186,4.0,3.10987138,82.05188235,5.68,'11111222,11111222,11111222' 
TABS,ioos:station:wmo:42043:1,2003-03-01T05:09:00Z,28.9818,-94.9186,4.0,3.19882791,78.09249911,5.17,'11111222,11111222,11111222' 
TABS,ioos:station:wmo:42043:1,2003-03-01T05:39:00Z,28.9818,-94.9186,4.0,3.371527844,75.22145191,5.66,'11111222,11111222,11111222' 
TABS,ioos:station:wmo:42043:1,2003-03-01T06:09:00Z,28.9818,-94.9186,4.0,3.900371777,75.14389705,6.23,'11111222,11111222,11111222' 
TABS,ioos:station:wmo:42043:1,2003-03-01T06:39:00Z,28.9818,-94.9186,4.0,3.44818793,73.14121974,5.91,'11111222,11111222,11111222' 
TABS,ioos:station:wmo:42043:1,2003-03-01T07:09:00Z,28.9818,-94.9186,4.0,3.371483353,83.52803341,5.61,'11111222,11111222,11111222' 
TABS,ioos:station:wmo:42043:1,2003-03-01T07:39:00Z,28.9818,-94.9186,4.0,3.234455132,77.68215186,6.07,'11111222,11111222,11111222' 
TABS,ioos:station:wmo:42043:1,2003-03-01T08:09:00Z,28.9818,-94.9186,4.0,3.36808551,74.147688,5.6,'11111222,11111222,11111222' 
TABS,ioos:station:wmo:42043:1,2003-03-01T08:39:00Z,28.9818,-94.9186,4.0,3.143962468,79.36875371,4.86,'11111222,11111222,11111222' 
TABS,ioos:station:wmo:42043:1,2003-03-01T09:09:00Z,28.9818,-94.9186,4.0,3.440755731,58.0648753,5.64,'11111222,11111222,11111222' 
TABS,ioos:station:wmo:42043:1,2003-03-01T09:39:00Z,28.9818,-94.9186,4.0,3.370133529,57.1112055,5.34,'11111222,11111222,11111222' 
TABS,ioos:station:wmo:42043:1,2003-03-01T10:09:00Z,28.9818,-94.9186,4.0,3.716947672,55.411747,5.63,'11111222,11111222,11111222' 
TABS,ioos:station:wmo:42043:1,2003-03-01T10:39:00Z,28.9818,-94.9186,4.0,3.836626122,59.62496667,5.86,'11111222,11111222,11111222' 
TABS,ioos:station:wmo:42043:1,2003-03-01T11:09:00Z,28.9818,-94.9186,4.0,4.763884969,54.74160953,6.83,'11111222,11111222,11111222' 
TABS,ioos:station:wmo:42043:1,2003-03-01T11:39:00Z,28.9818,-94.9186,4.0,5.413501639,50.54643504,7.9,'11111222,11111222,11111222' 
TABS,ioos:station:wmo:42043:1,2003-03-01T12:09:00Z,28.9818,-94.9186,4.0,6.024383786,53.77650378,8.45,'11111222,11111222,11111222' 
TABS,ioos:station:wmo:42043:1,2003-03-01T12:39:00Z,28.9818,-94.9186,4.0,5.899644057,55.63618875,9.74,'11111222,11111222,11111222' 
TABS,ioos:station:wmo:42043:1,2003-03-01T13:09:00Z,28.9818,-94.9186,4.0,6.175127529,54.22469204,9.96,'11111222,11111222,11111222' 
TABS,ioos:station:wmo:42043:1,2003-03-01T13:39:00Z,28.9818,-94.9186,4.0,5.849581182,54.46198439,8.54,'11111222,11111222,11111222' 
TABS,ioos:station:wmo:42043:1,2003-03-01T14:09:00Z,28.9818,-94.9186,4.0,5.830951895,59.03589496,10.02,'11111222,11111222,11111222' 
TABS,ioos:station:wmo:42043:1,2003-03-01T14:39:00Z,28.9818,-94.9186,4.0,5.538637016,52.26077791,8.69,'11111222,11111222,11111222' 
TABS,ioos:station:wmo:42043:1,2003-03-01T15:09:00Z,28.9818,-94.9186,4.0,5.848221952,70.41829371,8.78,'11111222,11111222,11111222' 
TABS,ioos:station:wmo:42043:1,2003-03-01T15:39:00Z,28.9818,-94.9186,4.0,4.550835088,70.88782788,7.57,'11111222,11111222,11111222' 
TABS,ioos:station:wmo:42043:1,2003-03-01T16:09:00Z,28.9818,-94.9186,4.0,4.380182645,52.6065343,7.19,'11111222,11111222,11111222' 
TABS,ioos:station:wmo:42043:1,2003-03-01T16:39:00Z,28.9818,-94.9186,4.0,3.918622207,43.55208801,6.09,'11111222,11111222,11111222' 
TABS,ioos:station:wmo:42043:1,2003-03-01T17:09:00Z,28.9818,-94.9186,4.0,4.624305353,51.32051113,7.81,'11111222,11111222,11111222' 
TABS,ioos:station:wmo:42043:1,2003-03-01T17:39:00Z,28.9818,-94.9186,4.0,6.019775743,63.9879483,8.69,'11111222,11111222,11111222' 
TABS,ioos:station:wmo:42043:1,2003-03-01T18:09:00Z,28.9818,-94.9186,4.0,5.321390796,49.72537911,8.58,'11111222,11111222,11111222' 
TABS,ioos:station:wmo:42043:1,2003-03-01T18:39:00Z,28.9818,-94.9186,4.0,5.108189503,75.25605072,7.52,'11111222,11111222,11111222' 
TABS,ioos:station:wmo:42043:1,2003-03-01T19:09:00Z,28.9818,-94.9186,4.0,4.451033588,73.15241904,7.95,'11111222,11111222,11111222' 
TABS,ioos:station:wmo:42043:1,2003-03-01T19:39:00Z,28.9818,-94.9186,4.0,4.550703242,72.0822711,7.74,'11111222,11111222,11111222' 
TABS,ioos:station:wmo:42043:1,2003-03-01T20:09:00Z,28.9818,-94.9186,4.0,4.40967119,81.39173684,7.59,'11111222,11111222,11111222' 
TABS,ioos:station:wmo:42043:1,2003-03-01T20:39:00Z,28.9818,-94.9186,4.0,4.050938163,71.87776121,7.26,'11111222,11111222,11111222' 
TABS,ioos:station:wmo:42043:1,2003-03-01T21:09:00Z,28.9818,-94.9186,4.0,4.199809519,72.25494895,6.86,'11111222,11111222,11111222' 
TABS,ioos:station:wmo:42043:1,2003-03-01T21:39:00Z,28.9818,-94.9186,4.0,4.190763654,70.48375171,7.03,'11111222,11111222,11111222' 
TABS,ioos:station:wmo:42043:1,2003-03-01T22:09:00Z,28.9818,-94.9186,4.0,4.04170756,72.28195227,6.35,'11111222,11111222,11111222' 
TABS,ioos:station:wmo:42043:1,2003-03-01T22:39:00Z,28.9818,-94.9186,4.0,4.931095213,72.77729299,7.11,'11111222,11111222,11111222' 
TABS,ioos:station:wmo:42043:1,2003-03-01T23:09:00Z,28.9818,-94.9186,4.0,5.20343156,81.04414669,8.16,'11111222,11111222,11111222' 
TABS,ioos:station:wmo:42043:1,2003-03-01T23:39:00Z,28.9818,-94.9186,4.0,4.838481167,81.08237913,7.94,'11111222,11111222,11111222' 
TABS,ioos:station:wmo:42043:1,2003-03-02T00:09:00Z,28.9818,-94.9186,4.0,3.933954753,76.17531191,6.34,'11111222,11111222,11111222' 
TABS,ioos:station:wmo:42043:1,2003-03-02T00:39:00Z,28.9818,-94.9186,4.0,3.2611961,82.06826561,5.42,'11111222,11111222,11111222' 
TABS,ioos:station:wmo:42043:1,2003-03-02T01:09:00Z,28.9818,-94.9186,4.0,3.884958172,82.30749542,6.45,'11111222,11111222,11111222' 
TABS,ioos:station:wmo:42043:1,2003-03-02T01:39:00Z,28.9818,-94.9186,4.0,3.308005441,93.98730647,6.39,'11111222,11111222,11111222' 
TABS,ioos:station:wmo:42043:1,2003-03-02T02:09:00Z,28.9818,-94.9186,4.0,2.730073259,90.42016173,5.39,'11111222,11111222,11111222' 
TABS,ioos:station:wmo:42043:1,2003-03-02T02:39:00Z,28.9818,-94.9186,4.0,1.218523697,66.80104282,4.86,'11111222,11111222,11111222' 
TABS,ioos:station:wmo:42043:1,2003-03-02T03:09:00Z,28.9818,-94.9186,4.0,1.08295891,94.23680581,3.99,'11111222,11111222,11111222' 
TABS,ioos:station:wmo:42043:1,2003-03-02T03:39:00Z,28.9818,-94.9186,4.0,1.856071119,332.7445249,4.58,'11111222,11111222,11111222' 
TABS,ioos:station:wmo:42043:1,2003-03-02T04:09:00Z,28.9818,-94.9186,4.0,1.3,22.61960159,4.95,'11111222,11111222,11111222' 
TABS,ioos:station:wmo:42043:1,2003-03-02T04:39:00Z,28.9818,-94.9186,4.0,1.785301095,58.98085593,5.06,'11111222,11111222,11111222' 
TABS,ioos:station:wmo:42043:1,2003-03-02T05:09:00Z,28.9818,-94.9186,4.0,1.652180378,29.35747443,3.96,'11111222,11111222,11111222' 
TABS,ioos:station:wmo:42043:1,2003-03-02T05:39:00Z,28.9818,-94.9186,4.0,2.603536057,43.13200984,4.46,'11111222,11111222,11111222' 
TABS,ioos:station:wmo:42043:1,2003-03-02T06:09:00Z,28.9818,-94.9186,4.0,2.367635952,50.99971957,3.84,'11111222,11111222,11111222' 
TABS,ioos:station:wmo:42043:1,2003-03-02T06:39:00Z,28.9818,-94.9186,4.0,3.381198013,60.4018945,5.02,'11111222,11111222,11111222' 
TABS,ioos:station:wmo:42043:1,2003-03-02T07:09:00Z,28.9818,-94.9186,4.0,3.594690529,58.65320073,5.69,'11111222,11111222,11111222' 
TABS,ioos:station:wmo:42043:1,2003-03-02T07:39:00Z,28.9818,-94.9186,4.0,4.296382199,55.71779064,6.23,'11111222,11111222,11111222' 
TABS,ioos:station:wmo:42043:1,2003-03-02T08:09:00Z,28.9818,-94.9186,4.0,4.845719761,48.51342636,7.45,'11111222,11111222,11111222' 
TABS,ioos:station:wmo:42043:1,2003-03-02T08:39:00Z,28.9818,-94.9186,4.0,5.426195721,41.56308078,7.83,'11111222,11111222,11111222' 
TABS,ioos:station:wmo:42043:1,2003-03-02T09:09:00Z,28.9818,-94.9186,4.0,5.321325023,50.56632452,7.83,'11111222,11111222,11111222' 
TABS,ioos:station:wmo:42043:1,2003-03-02T09:39:00Z,28.9818,-94.9186,4.0,5.467696041,57.47220387,8.51,'11111222,11111222,11111222' 
TABS,ioos:station:wmo:42043:1,2003-03-02T10:09:00Z,28.9818,-94.9186,4.0,5.582902471,69.22737298,8.16,'11111222,11111222,11111222' 
TABS,ioos:station:wmo:42043:1,2003-03-02T10:39:00Z,28.9818,-94.9186,4.0,6.114981603,64.73368339,8.43,'11111222,11111222,11111222' 
TABS,ioos:station:wmo:42043:1,2003-03-02T11:09:00Z,28.9818,-94.9186,4.0,6.081422531,61.41174366,8.44,'11111222,11111222,11111222' 
TABS,ioos:station:wmo:42043:1,2003-03-02T11:39:00Z,28.9818,-94.9186,4.0,6.243620744,64.17331816,8.98,'11111222,11111222,11111222' 
TABS,ioos:station:wmo:42043:1,2003-03-02T12:09:00Z,28.9818,-94.9186,4.0,6.648247889,61.81562863,9.91,'11111222,11111222,11111222' 
TABS,ioos:station:wmo:42043:1,2003-03-02T12:39:00Z,28.9818,-94.9186,4.0,6.504229393,56.92039498,10.1,'11111222,11111222,11111222' 
TABS,ioos:station:wmo:42043:1,2003-03-02T13:09:00Z,28.9818,-94.9186,4.0,7.452013151,58.44252053,10.96,'11111222,11111222,11111222' 
TABS,ioos:station:wmo:42043:1,2003-03-02T13:39:00Z,28.9818,-94.9186,4.0,5.924432462,55.7999515,9.03,'11111222,11111222,11111222' 
TABS,ioos:station:wmo:42043:1,2003-03-02T14:09:00Z,28.9818,-94.9186,4.0,5.721756723,56.47622771,9.78,'11111222,11111222,11111222' 
TABS,ioos:station:wmo:42043:1,2003-03-02T14:39:00Z,28.9818,-94.9186,4.0,6.998292649,52.60578665,11.16,'11111222,11111222,11111222' 
TABS,ioos:station:wmo:42043:1,2003-03-02T15:09:00Z,28.9818,-94.9186,4.0,6.774252726,55.16007767,12.02,'11111222,11111222,11111222' 
TABS,ioos:station:wmo:42043:1,2003-03-02T15:39:00Z,28.9818,-94.9186,4.0,6.608191886,50.64925939,10.35,'11111222,11111222,11111222' 
TABS,ioos:station:wmo:42043:1,2003-03-02T16:09:00Z,28.9818,-94.9186,4.0,6.637650187,51.85213806,10.18,'11111222,11111222,11111222' 
TABS,ioos:station:wmo:42043:1,2003-03-02T16:39:00Z,28.9818,-94.9186,4.0,7.118384648,52.53413334,10.68,'11111222,11111222,11111222' 
TABS,ioos:station:wmo:42043:1,2003-03-02T17:09:00Z,28.9818,-94.9186,4.0,7.243652394,54.94932125,10.59,'11111222,11111222,11111222' 
TABS,ioos:station:wmo:42043:1,2003-03-02T17:39:00Z,28.9818,-94.9186,4.0,7.440732491,49.52366121,11.63,'11111222,11111222,11111222' 
TABS,ioos:station:wmo:42043:1,2003-03-02T18:09:00Z,28.9818,-94.9186,4.0,7.103611757,49.85330547,13.42,'11111222,11111222,11111222' 
TABS,ioos:station:wmo:42043:1,2003-03-02T18:39:00Z,28.9818,-94.9186,4.0,6.166627928,52.31211042,9.53,'11111222,11111222,11111222' 
TABS,ioos:station:wmo:42043:1,2003-03-02T19:09:00Z,28.9818,-94.9186,4.0,6.322309705,44.1025104,9.28,'11111222,11111222,11111222' 
TABS,ioos:station:wmo:42043:1,2003-03-02T19:39:00Z,28.9818,-94.9186,4.0,6.404662364,47.34085438,9.75,'11111222,11111222,11111222' 
TABS,ioos:station:wmo:42043:1,2003-03-02T20:09:00Z,28.9818,-94.9186,4.0,5.573957302,50.97063131,8.62,'11111222,11111222,11111222' 
TABS,ioos:station:wmo:42043:1,2003-03-02T20:39:00Z,28.9818,-94.9186,4.0,5.008961968,56.15096493,8.72,'11111222,11111222,11111222' 
TABS,ioos:station:wmo:42043:1,2003-03-02T21:09:00Z,28.9818,-94.9186,4.0,4.713767071,62.99971682,7.59,'11111222,11111222,11111222' 
TABS,ioos:station:wmo:42043:1,2003-03-02T21:39:00Z,28.9818,-94.9186,4.0,5.177219331,60.36458157,7.88,'11111222,11111222,11111222' 
TABS,ioos:station:wmo:42043:1,2003-03-02T22:09:00Z,28.9818,-94.9186,4.0,5.502163211,66.09001164,8.68,'11111222,11111222,11111222' 
TABS,ioos:station:wmo:42043:1,2003-03-02T22:39:00Z,28.9818,-94.9186,4.0,5.288667129,68.47986825,8.24,'11111222,11111222,11111222' 
TABS,ioos:station:wmo:42043:1,2003-03-02T23:09:00Z,28.9818,-94.9186,4.0,5.731710042,60.52754265,7.93,'11111222,11111222,11111222' 
TABS,ioos:station:wmo:42043:1,2003-03-02T23:39:00Z,28.9818,-94.9186,4.0,5.52349527,62.73872571,8.05,'11111222,11111222,11111222' 
TABS,ioos:station:wmo:42043:1,2003-03-03T00:09:00Z,28.9818,-94.9186,4.0,5.03167964,66.95056139,7.58,'11111222,11111222,11111222' 
TABS,ioos:station:wmo:42043:1,2003-03-03T00:39:00Z,28.9818,-94.9186,4.0,4.16367626,73.39263734,7.07,'11111222,11111222,11111222' 
TABS,ioos:station:wmo:42043:1,2003-03-03T01:09:00Z,28.9818,-94.9186,4.0,4.401090774,82.1640723,7.25,'11111222,11111222,11111222' 
TABS,ioos:station:wmo:42043:1,2003-03-03T01:39:00Z,28.9818,-94.9186,4.0,3.786251444,81.03484049,6.42,'11111222,11111222,11111222' 
TABS,ioos:station:wmo:42043:1,2003-03-03T02:09:00Z,28.9818,-94.9186,4.0,3.538417725,81.54889995,6.16,'11111222,11111222,11111222' 
TABS,ioos:station:wmo:42043:1,2003-03-03T02:39:00Z,28.9818,-94.9186,4.0,3.234455132,77.68215186,5.51,'11111222,11111222,11111222' 
TABS,ioos:station:wmo:42043:1,2003-03-03T03:09:00Z,28.9818,-94.9186,4.0,3.328257803,79.2636232,5.54,'11111222,11111222,11111222' 
TABS,ioos:station:wmo:42043:1,2003-03-03T04:39:00Z,28.9818,-94.9186,4.0,3.46394284,80.86359144,5.94,'11111222,11111222,11111222' 
TABS,ioos:station:wmo:42043:1,2003-03-03T05:09:00Z,28.9818,-94.9186,4.0,3.435462123,67.76464019,5.58,'11111222,11111222,11111222' 
TABS,ioos:station:wmo:42043:1,2003-03-03T05:39:00Z,28.9818,-94.9186,4.0,3.830992039,65.6423242,6.49,'11111222,11111222,11111222' 
TABS,ioos:station:wmo:42043:1,2003-03-03T06:09:00Z,28.9818,-94.9186,4.0,3.924206926,61.54066927,6.52,'11111222,11111222,11111222' 
TABS,ioos:station:wmo:42043:1,2003-03-03T06:39:00Z,28.9818,-94.9186,4.0,4.713904963,77.378516,8.48,'11111222,11111222,11111222' 
TABS,ioos:station:wmo:42043:1,2003-03-03T07:09:00Z,28.9818,-94.9186,4.0,4.889764821,64.95442899,8.44,'11111222,11111222,11111222' 
TABS,ioos:station:wmo:42043:1,2003-03-03T07:39:00Z,28.9818,-94.9186,4.0,6.073755016,64.23617047,8.86,'11111222,11111222,11111222' 
TABS,ioos:station:wmo:42043:1,2003-03-03T08:09:00Z,28.9818,-94.9186,4.0,5.704068723,59.20816036,9.54,'11111222,11111222,11111222' 
TABS,ioos:station:wmo:42043:1,2003-03-03T08:39:00Z,28.9818,-94.9186,4.0,6.368547715,63.91740707,10.32,'11111222,11111222,11111222' 
TABS,ioos:station:wmo:42043:1,2003-03-03T09:09:00Z,28.9818,-94.9186,4.0,6.410374404,64.79375717,9.55,'11111222,11111222,11111222' 
TABS,ioos:station:wmo:42043:1,2003-03-03T09:39:00Z,28.9818,-94.9186,4.0,6.226925405,67.42931236,9.94,'11111222,11111222,11111222' 
TABS,ioos:station:wmo:42043:1,2003-03-03T10:09:00Z,28.9818,-94.9186,4.0,6.076989386,66.4296415,9.63,'11111222,11111222,11111222' 
TABS,ioos:station:wmo:42043:1,2003-03-03T10:39:00Z,28.9818,-94.9186,4.0,6.292217415,57.72401024,9.49,'11111222,11111222,11111222' 
TABS,ioos:station:wmo:42043:1,2003-03-03T11:09:00Z,28.9818,-94.9186,4.0,7.118461913,67.36119269,10.41,'11111222,11111222,11111222' 
TABS,ioos:station:wmo:42043:1,2003-03-03T11:39:00Z,28.9818,-94.9186,4.0,7.121460524,64.72999943,9.95,'11111222,11111222,11111222' 
TABS,ioos:station:wmo:42043:1,2003-03-03T12:09:00Z,28.9818,-94.9186,4.0,9.630186914,70.71800132,13.24,'11111222,11111222,11111222' 
TABS,ioos:station:wmo:42043:1,2003-03-03T12:39:00Z,28.9818,-94.9186,4.0,9.054131654,72.18503509,13.2,'11111222,11111222,11111222' 
TABS,ioos:station:wmo:42043:1,2003-03-03T13:09:00Z,28.9818,-94.9186,4.0,8.091390486,68.92144599,12.23,'11111222,11111222,11111222' 
TABS,ioos:station:wmo:42043:1,2003-03-03T13:39:00Z,28.9818,-94.9186,4.0,7.622821,68.04468816,11.53,'11111222,11111222,11111222' 
TABS,ioos:station:wmo:42043:1,2003-03-03T14:09:00Z,28.9818,-94.9186,4.0,6.690328841,79.57985918,10.5,'11111222,11111222,11111222' 
TABS,ioos:station:wmo:42043:1,2003-03-03T14:39:00Z,28.9818,-94.9186,4.0,7.232848678,68.08054034,10.71,'11111222,11111222,11111222' 
TABS,ioos:station:wmo:42043:1,2003-03-03T15:09:00Z,28.9818,-94.9186,4.0,6.001416499,86.46493995,9.05,'11111222,11111222,11111222' 
TABS,ioos:station:wmo:42043:1,2003-03-03T15:39:00Z,28.9818,-94.9186,4.0,7.304279567,91.961834,10.85,'11111222,11111222,11111222' 
TABS,ioos:station:wmo:42043:1,2003-03-03T16:09:00Z,28.9818,-94.9186,4.0,3.763469144,78.65981603,7.44,'11111222,11111222,11111222' 
TABS,ioos:station:wmo:42043:1,2003-03-03T16:39:00Z,28.9818,-94.9186,4.0,5.182518693,93.98363021,8.57,'11111222,11111222,11111222' 
TABS,ioos:station:wmo:42043:1,2003-03-03T17:09:00Z,28.9818,-94.9186,4.0,5.567566793,102.7636045,8.62,'11111222,11111222,11111222' 
TABS,ioos:station:wmo:42043:1,2003-03-03T17:39:00Z,28.9818,-94.9186,4.0,4.633961588,96.94138812,8.35,'11111222,11111222,11111222' 
TABS,ioos:station:wmo:42043:1,2003-03-03T18:09:00Z,28.9818,-94.9186,4.0,4.765931179,80.45822331,7.52,'11111222,11111222,11111222' 
TABS,ioos:station:wmo:42043:1,2003-03-03T18:39:00Z,28.9818,-94.9186,4.0,4.345526435,70.64735423,6.62,'11111222,11111222,11111222' 
TABS,ioos:station:wmo:42043:1,2003-03-03T19:09:00Z,28.9818,-94.9186,4.0,3.913425609,77.4549205,8.06,'11111222,11111222,11111222' 
TABS,ioos:station:wmo:42043:1,2003-03-03T19:39:00Z,28.9818,-94.9186,4.0,3.945478425,35.30104525,6.76,'11111222,11111222,11111222' 
TABS,ioos:station:wmo:42043:1,2003-03-03T20:09:00Z,28.9818,-94.9186,4.0,5.040605122,13.07105409,9.4,'11111222,11111222,11111222' 
TABS,ioos:station:wmo:42043:1,2003-03-03T20:39:00Z,28.9818,-94.9186,4.0,8.988537145,347.3396469,13.9,'11111222,11111222,11111222' 
TABS,ioos:station:wmo:42043:1,2003-03-03T21:09:00Z,28.9818,-94.9186,4.0,9.286274818,354.9338507,13.93,'11111222,11111222,11111222' 
TABS,ioos:station:wmo:42043:1,2003-03-03T21:39:00Z,28.9818,-94.9186,4.0,9.831836044,1.107095471,15.05,'11111222,11111222,11111222' 
TABS,ioos:station:wmo:42043:1,2003-03-03T22:09:00Z,28.9818,-94.9186,4.0,10.389153,7.07690606,15.4,'11111222,11111222,11111222' 
TABS,ioos:station:wmo:42043:1,2003-03-03T22:39:00Z,28.9818,-94.9186,4.0,9.400223402,32.92903691,14.05,'11111222,11111222,11111222' 
TABS,ioos:station:wmo:42043:1,2003-03-03T23:09:00Z,28.9818,-94.9186,4.0,8.75610073,36.59477243,12.53,'11111222,11111222,11111222' 
TABS,ioos:station:wmo:42043:1,2003-03-03T23:39:00Z,28.9818,-94.9186,4.0,9.226407752,42.97935666,13.44,'11111222,11111222,11111222' 
TABS,ioos:station:wmo:42043:1,2003-03-04T00:09:00Z,28.9818,-94.9186,4.0,9.050580092,55.62481443,13.1,'11111222,11111222,11111222' 
TABS,ioos:station:wmo:42043:1,2003-03-04T00:39:00Z,28.9818,-94.9186,4.0,8.199006037,62.30945195,11.87,'11111222,11111222,11111222' 
TABS,ioos:station:wmo:42043:1,2003-03-04T01:09:00Z,28.9818,-94.9186,4.0,8.683616758,71.60640362,11.99,'11111222,11111222,11111222' 
TABS,ioos:station:wmo:42043:1,2003-03-04T01:39:00Z,28.9818,-94.9186,4.0,7.743125984,88.37145905,12.34,'11111222,11111222,11111222' 
TABS,ioos:station:wmo:42043:1,2003-03-04T02:09:00Z,28.9818,-94.9186,4.0,8.078019559,97.97001268,12.22,'11111222,11111222,11111222' 
TABS,ioos:station:wmo:42043:1,2003-03-04T02:39:00Z,28.9818,-94.9186,4.0,7.709344979,105.1903212,12.64,'11111222,11111222,11111222' 
TABS,ioos:station:wmo:42043:1,2003-03-04T03:09:00Z,28.9818,-94.9186,4.0,7.686767851,105.7000528,11.53,'11111222,11111222,11111222' 
TABS,ioos:station:wmo:42043:1,2003-03-04T03:39:00Z,28.9818,-94.9186,4.0,5.811609072,104.7539853,9.18,'11111222,11111222,11111222' 
TABS,ioos:station:wmo:42043:1,2003-03-04T04:09:00Z,28.9818,-94.9186,4.0,5.372010797,100.6200514,9.2,'11111222,11111222,11111222' 
TABS,ioos:station:wmo:42043:1,2003-03-04T04:39:00Z,28.9818,-94.9186,4.0,4.490044543,90.25563369,6.94,'11111222,11111222,11111222' 
TABS,ioos:station:wmo:42043:1,2003-03-04T05:09:00Z,28.9818,-94.9186,4.0,3.112699793,98.31272514,5.74,'11111222,11111222,11111222' 
TABS,ioos:station:wmo:42043:1,2003-03-04T05:39:00Z,28.9818,-94.9186,4.0,2.350170207,104.0366316,4.89,'11111222,11111222,11111222' 
TABS,ioos:station:wmo:42043:1,2003-03-04T06:09:00Z,28.9818,-94.9186,4.0,3.11955125,77.03252542,5.75,'11111222,11111222,11111222' 
TABS,ioos:station:wmo:42043:1,2003-03-04T06:39:00Z,28.9818,-94.9186,4.0,3.781904282,1.818088254,6.42,'11111222,11111222,11111222' 
TABS,ioos:station:wmo:42043:1,2003-03-04T07:09:00Z,28.9818,-94.9186,4.0,3.192303244,5.031711997,5.84,'11111222,11111222,11111222' 
TABS,ioos:station:wmo:42043:1,2003-03-04T07:39:00Z,28.9818,-94.9186,4.0,2.980771712,14.17585909,5.53,'11111222,11111222,11111222' 
TABS,ioos:station:wmo:42043:1,2003-03-04T08:09:00Z,28.9818,-94.9186,4.0,3.338397819,6.017764772,6.87,'11111222,11111222,11111222' 
TABS,ioos:station:wmo:42043:1,2003-03-04T08:39:00Z,28.9818,-94.9186,4.0,3.632079294,11.43344407,6.53,'11111222,11111222,11111222' 
TABS,ioos:station:wmo:42043:1,2003-03-04T09:09:00Z,28.9818,-94.9186,4.0,3.489412558,25.09598132,5.56,'11111222,11111222,11111222' 
TABS,ioos:station:wmo:42043:1,2003-03-04T09:39:00Z,28.9818,-94.9186,4.0,3.748172888,25.60766115,5.98,'11111222,11111222,11111222' 
TABS,ioos:station:wmo:42043:1,2003-03-04T10:09:00Z,28.9818,-94.9186,4.0,4.166209308,46.45851106,6.55,'11111222,11111222,11111222' 
TABS,ioos:station:wmo:42043:1,2003-03-04T10:39:00Z,28.9818,-94.9186,4.0,3.944008114,53.24598584,5.92,'11111222,11111222,11111222' 
TABS,ioos:station:wmo:42043:1,2003-03-04T11:09:00Z,28.9818,-94.9186,4.0,4.364000458,61.08531687,6.38,'11111222,11111222,11111222' 
TABS,ioos:station:wmo:42043:1,2003-03-04T11:39:00Z,28.9818,-94.9186,4.0,3.940317246,62.65422086,6.04,'11111222,11111222,11111222' 
TABS,ioos:station:wmo:42043:1,2003-03-04T12:09:00Z,28.9818,-94.9186,4.0,3.488337713,63.80186477,5.15,'11111222,11111222,11111222' 
TABS,ioos:station:wmo:42043:1,2003-03-04T12:39:00Z,28.9818,-94.9186,4.0,3.468083044,52.73326433,5.55,'11111222,11111222,11111222' 
TABS,ioos:station:wmo:42043:1,2003-03-04T13:09:00Z,28.9818,-94.9186,4.0,3.164316672,59.62591056,4.85,'11111222,11111222,11111222' 
TABS,ioos:station:wmo:42043:1,2003-03-04T13:39:00Z,28.9818,-94.9186,4.0,2.949847454,59.43562553,4.46,'11111222,11111222,11111222' 
TABS,ioos:station:wmo:42043:1,2003-03-04T14:09:00Z,28.9818,-94.9186,4.0,3.233218211,46.87961046,4.94,'11111222,11111222,11111222' 
TABS,ioos:station:wmo:42043:1,2003-03-04T14:39:00Z,28.9818,-94.9186,4.0,3.672124726,39.58551546,5.32,'11111222,11111222,11111222' 
TABS,ioos:station:wmo:42043:1,2003-03-04T15:09:00Z,28.9818,-94.9186,4.0,3.0329029,54.52786667,4.74,'11111222,11111222,11111222' 
TABS,ioos:station:wmo:42043:1,2003-03-04T15:39:00Z,28.9818,-94.9186,4.0,3.175925062,62.22429869,4.88,'11111222,11111222,11111222' 
TABS,ioos:station:wmo:42043:1,2003-03-04T16:09:00Z,28.9818,-94.9186,4.0,3.159778473,55.05220563,4.88,'11111222,11111222,11111222' 
TABS,ioos:station:wmo:42043:1,2003-03-04T16:39:00Z,28.9818,-94.9186,4.0,3.226220699,67.01091604,4.87,'11111222,11111222,11111222' 
TABS,ioos:station:wmo:42043:1,2003-03-04T17:09:00Z,28.9818,-94.9186,4.0,3.265593361,66.73192868,5.07,'11111222,11111222,11111222' 
TABS,ioos:station:wmo:42043:1,2003-03-04T17:39:00Z,28.9818,-94.9186,4.0,2.927404994,75.96336844,4.76,'11111222,11111222,11111222' 
TABS,ioos:station:wmo:42043:1,2003-03-04T18:09:00Z,28.9818,-94.9186,4.0,2.401874268,62.4744177,4.33,'11111222,11111222,11111222' 
TABS,ioos:station:wmo:42043:1,2003-03-04T18:39:00Z,28.9818,-94.9186,4.0,2.270352396,76.75909013,4.06,'11111222,11111222,11111222' 
TABS,ioos:station:wmo:42043:1,2003-03-04T19:09:00Z,28.9818,-94.9186,4.0,2.11047388,95.7110007,4.13,'11111222,11111222,11111222' 
TABS,ioos:station:wmo:42043:1,2003-03-04T19:39:00Z,28.9818,-94.9186,4.0,3.052212312,105.5847856,4.72,'11111222,11111222,11111222' 